STARLINK-32418 (62429 NORAD) Tracking and Keplerian Element Data

This shows tracking and keplerian element data for the satellite.

Feedback or suggestion? Click here.




ElementValue
Catalog62429
NameSTARLINK-32418
Epoch Orbit644
Epoch Day35.13738645
Epoch Year2025
RAAN58.4406
Inclination43.0043
Eccentricity9.16E-05
Argument of Perigee251.4693
Mean Anonmoly108.6064
Mean Motion15.40695448
Decay Rate6.93E-06
L11 62429U 24249W 25035.13738645 .00000693 00000+0 23855-4 0 9990
L22 62429 43.0043 58.4406 0000916 251.4693 108.6064 15.40695448 6447



Live tracking and technical data element details for STARLINK-32418 (NORAD 62429). STARLINK-32418 can be tracked NOW for your location showing map with azimuth and elevation plus other details from your city location.







IsCatalogInMostPopularTable: catalog: 62429, numindb: 18
Update: records affected: 1



GetName: 62429 STARLINK-32418

Hit Count: updated at: Mon, 19 May 2025 02:55:06 GMT